Torna al catalogo

SARAMAGO

AttivoComunicazioniSSO
NORAD 100000·PAYLOAD·🇵🇹 Portugal

Lanciato Mar 30, 2026 da Vandenberg Space Force Base

Loading…

Prossimi Passaggi (prossime 24 ore)

TLE

AggiornatoSource: Space-Track

Epoca: Sep 14, 2026, 03:49 UTC

1 A0000U 26067CY  26257.15968170  .00007343  00000-0  33071-3 0  9994
2 A0000  97.4677 214.7781 0009612  63.9156 296.3068 15.21322772 25227

Traccia SARAMAGO in tempo reale con AllMySat

Download on the App Store